Location: Maiden
(35.5760°N, 81.2120°W)
Time: 03:06:41
(UTC-04:00)

Cosmos 1782 - Pass Details

Date: 02 August 2020
Orbit: 536 x 552 km, 82.5° (Epoch: 11 August)

Event Time Altitude Azimuth Distance (km) Brightness Sun altitude
Rises 21:52:50 0° 356° (N) 2,712 7.0 -16.0°
Reaches altitude 10° 21:55:01 10° 360° (N) 1,818 6.0 -16.4°
Maximum altitude 21:58:59 64° 82° (E) 607 2.8 -17.0°
Enters shadow 22:00:31 35° 152° (SSE) 896 3.4 -17.3°
